TimePST,TemperatureF,Dew PointF,Humidity,Sea Level PressureIn,VisibilityMPH,Wind Direction,Wind SpeedMPH,Gust SpeedMPH,PrecipitationIn,Events,Conditions,WindDirDegrees,DateUTC
12:52 AM,57.0,53.1,87,29.99,6.0,ESE,4.6,-,N/A,,Mostly Cloudy,110,2012-12-12 08:52:00
1:52 AM,55.9,52.0,87,29.97,6.0,ESE,9.2,-,N/A,,Mostly Cloudy,120,2012-12-12 09:52:00
2:52 AM,55.9,51.1,84,29.95,6.0,ESE,8.1,-,N/A,,Mostly Cloudy,120,2012-12-12 10:52:00
3:52 AM,55.9,48.9,77,29.96,7.0,Calm,Calm,-,N/A,,Mostly Cloudy,0,2012-12-12 11:52:00
4:36 AM,55.4,48.2,77,29.95,7.0,Calm,Calm,-,N/A,,Scattered Clouds,0,2012-12-12 12:36:00
4:52 AM,51.1,46.9,86,29.95,7.0,Calm,Calm,-,N/A,,Partly Cloudy,0,2012-12-12 12:52:00
5:52 AM,54.0,46.9,77,29.97,7.0,East,4.6,-,N/A,,Mostly Cloudy,90,2012-12-12 13:52:00
6:52 AM,53.1,46.0,77,29.97,7.0,Calm,Calm,-,N/A,,Mostly Cloudy,0,2012-12-12 14:52:00
7:52 AM,55.9,48.9,77,29.97,7.0,Calm,Calm,-,N/A,,Mostly Cloudy,0,2012-12-12 15:52:00
8:52 AM,61.0,48.0,62,29.98,7.0,East,4.6,-,N/A,,Mostly Cloudy,90,2012-12-12 16:52:00
9:52 AM,63.0,50.0,63,29.97,8.0,SE,6.9,-,N/A,,Mostly Cloudy,130,2012-12-12 17:52:00
10:52 AM,64.9,51.1,61,29.96,9.0,SE,6.9,-,N/A,,Mostly Cloudy,140,2012-12-12 18:52:00
11:52 AM,66.0,50.0,56,29.92,9.0,South,5.8,-,N/A,,Mostly Cloudy,170,2012-12-12 19:52:00
12:52 PM,66.0,54.0,65,29.90,10.0,SSW,8.1,-,N/A,,Mostly Cloudy,200,2012-12-12 20:52:00
1:52 PM,66.0,54.0,65,29.89,10.0,SSW,8.1,-,N/A,,Mostly Cloudy,210,2012-12-12 21:52:00
2:52 PM,64.0,54.0,70,29.89,10.0,SSW,6.9,-,N/A,,Mostly Cloudy,200,2012-12-12 22:52:00
3:52 PM,64.0,53.1,67,29.89,10.0,SSW,8.1,-,N/A,,Mostly Cloudy,200,2012-12-12 23:52:00
4:52 PM,63.0,53.1,70,29.88,10.0,SSE,5.8,-,N/A,,Mostly Cloudy,160,2012-12-13 00:52:00
5:52 PM,62.1,54.0,75,29.88,10.0,SSE,10.4,-,N/A,,Mostly Cloudy,160,2012-12-13 01:52:00
6:52 PM,62.1,55.0,78,29.88,10.0,SSE,12.7,-,N/A,,Mostly Cloudy,160,2012-12-13 02:52:00
7:52 PM,62.1,55.0,78,29.88,10.0,SSE,11.5,-,N/A,,Mostly Cloudy,160,2012-12-13 03:52:00
8:52 PM,62.1,55.0,78,29.88,10.0,SSE,12.7,25.3,N/A,,Mostly Cloudy,160,2012-12-13 04:52:00
9:52 PM,62.1,54.0,75,29.88,10.0,SSE,10.4,-,N/A,,Mostly Cloudy,160,2012-12-13 05:52:00
10:52 PM,62.1,55.0,78,29.88,8.0,SSE,15.0,21.9,N/A,,Mostly Cloudy,160,2012-12-13 06:52:00
11:18 PM,62.6,55.4,77,29.88,8.0,South,12.7,-,0.00,,Light Drizzle,170,2012-12-13 07:18:00
11:41 PM,62.6,53.6,72,29.87,9.0,South,11.5,-,0.00,,Mostly Cloudy,170,2012-12-13 07:41:00
11:52 PM,62.1,54.0,75,29.87,9.0,SSE,11.5,-,0.00,,Light Drizzle,160,2012-12-13 07:52:00